sat.trackr.live / text

‹ back to catalog

STARLINK-3985

NORAD 52644 · 2022-052AY

PAYLOAD ACTIVE UNKNOWN

§ Identity

Operator
Country
US
Launch date
2022-05-14
Launch site
AFETR
Launch vehicle
Mass (kg)
RCS (m²)

Purposes: comms

External: N2YO · Heavens-Above · Gunter

§ Orbital elements

Epoch: 2026-05-24T18:41:04.628256Z

Period
95.44 min
Inclination
53.2151°
Eccentricity
0.0001145
Mean motion
15.08836778 rev/d
Perigee alt
539.0 km
Apogee alt
540.5 km
Semi-major
6,917.9 km
B*
1.6013e-5
RAAN
277.5418°
Arg perigee
100.8217°
Mean anomaly
259.2905°
Rev number
22,261

§ Raw data

STARLINK-39851 52644U 22052AY  26144.77852579 -.00000033  00000+0  16013-4 0  99902 52644  53.2151 277.5418 0001145 100.8217 259.2905 15.08836778222612

JSON: /api/v1/satellites/52644 · /tle

For live sub-satellite position, see the globe view (requires WebGL).

§ Visibility from observer

Set your observer location to see the next 7 days of passes ≥ 10°. The values pass through the URL so the page stays shareable.

No JS? Fill the form by hand. The geolocation button needs JavaScript.